When you browse on this site, cookies collect data to enhance your experience and personalize the content and advertising you see.
Visit our Privacy Policy to learn more. By continuing to use the site, you agree to this use of cookies and data.
  • En España
  • Lista de países
  • Para 7 días
  • Temperatura del agua
  • Mapa Satelital
  • El tiempo en el mapa
  • Informadores
  • user-avatar
    Iniciar sesión

    Tiempo cada hora Santiago del Estero

    Hoy, 23 Julio, Martes

    Tiempo Temperatura Precipitaciones Viento Presión Humedad
    00:00 +14°C° 0 mm 4 mps 748 mmHg 23%
    01:00 +14°C° 0 mm 3 mps 748 mmHg 24%
    02:00 +13°C° 0 mm 3 mps 749 mmHg 25%
    03:00 +13°C° 0 mm 3 mps 748 mmHg 26%
    04:00 +13°C° 0 mm 4 mps 748 mmHg 27%
    05:00 +13°C° 0 mm 4 mps 748 mmHg 28%
    06:00 +13°C° 0 mm 4 mps 748 mmHg 29%
    07:00 +13°C° 0 mm 4 mps 749 mmHg 31%
    08:00 +12°C° 0 mm 5 mps 749 mmHg 31%
    09:00 +13°C° 0 mm 5 mps 750 mmHg 32%
    10:00 +13°C° 0 mm 5 mps 750 mmHg 32%
    11:00 +13°C° 0 mm 5 mps 751 mmHg 32%
    12:00 +13°C° 0 mm 5 mps 750 mmHg 32%
    13:00 +13°C° 0 mm 6 mps 750 mmHg 32%
    14:00 +13°C° 0 mm 6 mps 749 mmHg 31%
    15:00 +13°C° 0 mm 6 mps 749 mmHg 31%
    16:00 +13°C° 0 mm 6 mps 750 mmHg 30%
    17:00 +11°C° 0 mm 6 mps 750 mmHg 29%
    18:00 +12°C° 0 mm 5 mps 750 mmHg 32%
    19:00 +10°C° 0 mm 5 mps 751 mmHg 34%
    20:00 +10°C° 0 mm 5 mps 752 mmHg 37%
    21:00 +9°C° 0 mm 5 mps 752 mmHg 40%
    22:00 +8°C° 0 mm 4 mps 753 mmHg 44%
    23:00 +8°C° 0 mm 3 mps 753 mmHg 47%

    Mañana, 24 Julio, Miércoles

    Tiempo Temperatura Precipitaciones Viento Presión Humedad
    00:00 +8°C° 0 mm 3 mps 754 mmHg 49%
    01:00 +7°C° 0 mm 3 mps 754 mmHg 52%
    02:00 +7°C° 0 mm 3 mps 754 mmHg 54%
    03:00 +7°C° 0 mm 3 mps 754 mmHg 57%
    04:00 +5°C° 0 mm 3 mps 754 mmHg 60%
    05:00 +5°C° 0 mm 3 mps 754 mmHg 63%
    06:00 +5°C° 0 mm 3 mps 754 mmHg 61%
    07:00 +7°C° 0 mm 3 mps 755 mmHg 60%
    08:00 +7°C° 0 mm 3 mps 755 mmHg 58%
    09:00 +8°C° 0 mm 4 mps 755 mmHg 54%
    10:00 +11°C° 0 mm 4 mps 755 mmHg 50%
    11:00 +12°C° 0 mm 4 mps 755 mmHg 45%
    12:00 +13°C° 0 mm 5 mps 755 mmHg 44%
    13:00 +14°C° 0 mm 5 mps 754 mmHg 43%
    14:00 +15°C° 0 mm 6 mps 753 mmHg 42%
    15:00 +14°C° 0 mm 5 mps 753 mmHg 45%
    16:00 +13°C° 0 mm 5 mps 753 mmHg 48%
    17:00 +12°C° 0 mm 5 mps 753 mmHg 51%
    18:00 +11°C° 0 mm 4 mps 753 mmHg 56%
    19:00 +10°C° 0 mm 3 mps 753 mmHg 61%
    20:00 +8°C° 0 mm 3 mps 753 mmHg 66%
    21:00 +8°C° 0 mm 2 mps 753 mmHg 67%
    22:00 +8°C° 0 mm 1 mps 753 mmHg 68%
    23:00 +8°C° 0 mm 1 mps 753 mmHg 70%

    Pasado mañana, 25 Julio, Jueves

    Tiempo Temperatura Precipitaciones Viento Presión Humedad
    00:00 +8°C° 0 mm 1 mps 753 mmHg 69%
    01:00 +8°C° 0 mm 1 mps 752 mmHg 68%
    02:00 +8°C° 0 mm 1 mps 752 mmHg 67%
    03:00 +7°C° 0 mm 1 mps 751 mmHg 68%
    04:00 +7°C° 0 mm 1 mps 751 mmHg 69%
    05:00 +7°C° 0 mm 1 mps 750 mmHg 70%
    06:00 +7°C° 0 mm 1 mps 750 mmHg 68%
    07:00 +8°C° 0 mm 1 mps 751 mmHg 65%
    08:00 +7°C° 0 mm 2 mps 751 mmHg 63%
    09:00 +9°C° 0 mm 2 mps 751 mmHg 56%
    10:00 +10°C° 0 mm 2 mps 750 mmHg 50%
    11:00 +13°C° 0 mm 1 mps 750 mmHg 43%
    12:00 +14°C° 0 mm 1 mps 749 mmHg 41%
    13:00 +15°C° 0 mm 2 mps 748 mmHg 39%
    14:00 +16°C° 0 mm 2 mps 748 mmHg 37%
    15:00 +16°C° 0 mm 2 mps 747 mmHg 37%
    16:00 +16°C° 0 mm 2 mps 747 mmHg 38%
    17:00 +16°C° 0 mm 2 mps 746 mmHg 38%
    18:00 +14°C° 0 mm 2 mps 747 mmHg 45%
    19:00 +12°C° 0 mm 2 mps 747 mmHg 51%
    20:00 +10°C° 0 mm 2 mps 748 mmHg 57%
    21:00 +9°C° 0 mm 2 mps 748 mmHg 63%
    22:00 +8°C° 0 mm 2 mps 748 mmHg 69%
    23:00 +7°C° 0 mm 2 mps 748 mmHg 76%

    26 Julio, Viernes

    Tiempo Temperatura Precipitaciones Viento Presión Humedad
    00:00 +8°C° 0 mm 1 mps 748 mmHg 79%
    01:00 +7°C° 0 mm 1 mps 748 mmHg 83%
    02:00 +7°C° 0 mm 1 mps 748 mmHg 87%
    03:00 +7°C° 0 mm 1 mps 748 mmHg 87%
    04:00 +6°C° 0 mm 1 mps 748 mmHg 87%
    05:00 +6°C° 0 mm 1 mps 748 mmHg 87%
    06:00 +7°C° 0 mm 1 mps 749 mmHg 84%
    07:00 +8°C° 0 mm 1 mps 749 mmHg 80%
    08:00 +8°C° 0 mm 2 mps 750 mmHg 76%
    09:00 +10°C° 0 mm 2 mps 750 mmHg 67%
    10:00 +14°C° 0 mm 2 mps 750 mmHg 58%
    11:00 +16°C° 0 mm 2 mps 750 mmHg 48%
    12:00 +17°C° 0 mm 2 mps 750 mmHg 44%
    13:00 +19°C° 0 mm 2 mps 749 mmHg 40%
    14:00 +20°C° 0 mm 2 mps 748 mmHg 35%
    15:00 +20°C° 0 mm 2 mps 748 mmHg 36%
    16:00 +20°C° 0 mm 2 mps 748 mmHg 36%
    17:00 +20°C° 0 mm 2 mps 748 mmHg 37%
    18:00 +18°C° 0 mm 2 mps 748 mmHg 41%
    19:00 +16°C° 0 mm 3 mps 749 mmHg 45%
    20:00 +13°C° 0 mm 3 mps 749 mmHg 49%
    21:00 +12°C° 0 mm 3 mps 750 mmHg 51%
    22:00 +12°C° 0 mm 3 mps 750 mmHg 53%
    23:00 +11°C° 0 mm 3 mps 750 mmHg 55%

    27 Julio, Sábado

    Tiempo Temperatura Precipitaciones Viento Presión Humedad
    00:00 +10°C° 0 mm 3 mps 750 mmHg 58%
    01:00 +10°C° 0 mm 3 mps 750 mmHg 61%
    02:00 +9°C° 0 mm 3 mps 750 mmHg 64%
    03:00 +9°C° 0 mm 2 mps 750 mmHg 68%
    04:00 +9°C° 0 mm 2 mps 750 mmHg 71%
    05:00 +8°C° 0 mm 2 mps 750 mmHg 75%
    06:00 +8°C° 0 mm 2 mps 750 mmHg 75%
    07:00 +9°C° 0 mm 2 mps 751 mmHg 75%
    08:00 +9°C° 0 mm 2 mps 751 mmHg 75%
    09:00 +12°C° 0 mm 3 mps 751 mmHg 66%
    10:00 +14°C° 0 mm 3 mps 750 mmHg 58%
    11:00 +18°C° 0 mm 4 mps 750 mmHg 49%
    12:00 +19°C° 0 mm 4 mps 749 mmHg 44%
    13:00 +20°C° 0 mm 4 mps 749 mmHg 39%
    14:00 +22°C° 0 mm 4 mps 748 mmHg 34%
    15:00 +21°C° 0 mm 4 mps 747 mmHg 33%
    16:00 +21°C° 0 mm 4 mps 747 mmHg 33%
    17:00 +21°C° 0 mm 4 mps 746 mmHg 33%
    18:00 +19°C° 0 mm 4 mps 747 mmHg 40%
    19:00 +17°C° 0 mm 4 mps 747 mmHg 46%
    20:00 +14°C° 0 mm 4 mps 747 mmHg 53%
    21:00 +14°C° 0 mm 4 mps 747 mmHg 58%
    22:00 +13°C° 0 mm 4 mps 747 mmHg 63%
    23:00 +12°C° 0 mm 4 mps 748 mmHg 68%

    28 Julio, Domingo

    Tiempo Temperatura Precipitaciones Viento Presión Humedad
    00:00 +12°C° 0 mm 3 mps 747 mmHg 71%
    01:00 +11°C° 0 mm 3 mps 747 mmHg 75%
    02:00 +11°C° 0 mm 3 mps 747 mmHg 78%
    03:00 +10°C° 0 mm 3 mps 746 mmHg 81%
    04:00 +10°C° 0 mm 3 mps 746 mmHg 83%
    05:00 +10°C° 0 mm 3 mps 746 mmHg 86%
    06:00 +10°C° 0 mm 3 mps 746 mmHg 86%
    07:00 +10°C° 0 mm 3 mps 746 mmHg 87%
    08:00 +10°C° 0 mm 3 mps 746 mmHg 87%
    09:00 +13°C° 0 mm 4 mps 746 mmHg 76%
    10:00 +15°C° 0 mm 4 mps 746 mmHg 65%
    11:00 +17°C° 0 mm 5 mps 746 mmHg 53%
    12:00 +20°C° 0 mm 5 mps 745 mmHg 49%
    13:00 +21°C° 0 mm 5 mps 744 mmHg 44%
    14:00 +23°C° 0 mm 5 mps 743 mmHg 39%
    15:00 +23°C° 0 mm 4 mps 743 mmHg 40%
    16:00 +24°C° 0 mm 3 mps 742 mmHg 41%
    17:00 +22°C° 0 mm 3 mps 742 mmHg 42%
    18:00 +21°C° 0 mm 3 mps 742 mmHg 48%
    19:00 +19°C° 0 mm 3 mps 743 mmHg 54%
    20:00 +17°C° 0 mm 3 mps 743 mmHg 59%
    21:00 +16°C° 0 mm 3 mps 743 mmHg 66%
    22:00 +14°C° 0 mm 3 mps 743 mmHg 72%
    23:00 +14°C° 0 mm 3 mps 744 mmHg 78%
    Mostrar más